07:19 MESZ | 06.05.2026 Profi-Wetter| Mobile Seite| Kontakt| Impressum| Datenschutz
Social

Wetterstation Padova

aktuelles Wetter
  Temperatur Wetter Niederschlag Luftdruck Wind
Di, 15:50 Uhr 16° - 1013 hPa 13 km/h NO
Di, 14:50 Uhr 16° - 1014 hPa 13 km/h O
Di, 13:50 Uhr 16° - 1014 hPa 13 km/h O
Di, 12:50 Uhr 16° - 1014 hPa 11 km/h O
Di, 11:50 Uhr 16° - 1014 hPa 3 km/h
Di, 10:50 Uhr 17° - 1014 hPa 2 km/h
Di, 09:50 Uhr 16° - - 1014 hPa 3 km/h
Di, 08:50 Uhr 16° - 1014 hPa 10 km/h SO
Di, 08:00 Uhr 17° - 1013 hPa 8 km/h O
So, 15:50 Uhr 26° - - 1017 hPa 5 km/h SW
So, 14:50 Uhr 26° - - 1017 hPa 10 km/h SW
So, 13:50 Uhr 25° - - 1018 hPa 8 km/h
So, 12:50 Uhr 24° - - 1018 hPa 10 km/h S
So, 11:50 Uhr 24° - - 1019 hPa 10 km/h SW
So, 10:50 Uhr 22° - - 1019 hPa 3 km/h
So, 09:50 Uhr 19° - - 1019 hPa 5 km/h
So, 08:50 Uhr 16° - - 1019 hPa 3 km/h
So, 08:00 Uhr 15° - - 1019 hPa 3 km/h
Sa, 15:50 Uhr 24° - - 1022 hPa 10 km/h
Sa, 14:50 Uhr 24° - - 1023 hPa 11 km/h W

Alle Zeitangaben MESZ